Weather History for New Castle, PA

Change the Weather History Date:

Friday, January 24, 2014

  Actual Average Record
Temperature  
Mean Temperature 6 °F -  
Max Temperature 16 °F 38 °F 68 °F (1933)
Min Temperature -2 °F 17 °F -19 °F (1963)
Degree Days  
Heating Degree Days 59    
Moisture  
Dew Point -4 °F    
Average Humidity 70    
Maximum Humidity 85    
Minimum Humidity 45    
Precipitation  
Precipitation 0.00 in - - ()
Sea Level Pressure  
Sea Level Pressure 30.34 in    
Wind  
Wind Speed 7 mph (SSW)    
Max Wind Speed 14 mph    
Max Gust Speed 26 mph    
Visibility 10 miles    
Events Snow    
Averages and records for this station are not official NWS values.
T = Trace of Precipitation, MM = Missing Value Source: NWS Daily Summary

Daily Weather History Graph

Daily Weather History Graph

Search for Another Location

Airport:

Trip Planner

Search our weather history database for the weather conditions in past years. The results will help you decide how hot, cold, wet, or windy it might be!

Date:

Astronomy

Jan. 24, 2014 Rise Set
Actual Time 7:39 AM EST 5:28 PM EST
Civil Twilight 7:09 AM EST 5:58 PM EST
Nautical Twilight 6:36 AM EST 6:31 PM EST
Astronomical Twilight 6:03 AM EST 7:04 PM EST
Moon 1:04 AM EST (1/24) 11:47 AM EST (1/24)
Length of Visible Light 10h 48m
Length of Day
9h 49m
Last Quarter, 45% of the Moon is Illuminated
Jan 24
Last Quarter
Jan 30
New
Feb 6
First Quarter
Feb 14
Full
Feb 22
Last Quarter

Hourly Weather History & Observations

Time (EST) Temp. Windchill Dew Point Humidity Pressure Visibility Wind Dir Wind Speed Gust Speed Precip Events Conditions
12:06 AM 1.4 °F -9.9 °F -2.2 °F 85% 30.42 in 10.0 mi Variable 5.8 mph - 0.00 in Snow Light Snow
12:21 AM 1.4 °F -9.9 °F -2.2 °F 85% 30.42 in 10.0 mi SW 5.8 mph - 0.00 in   Mostly Cloudy
12:28 AM 1.4 °F -9.9 °F -2.2 °F 85% 30.42 in 10.0 mi WSW 5.8 mph - 0.00 in   Scattered Clouds
12:56 AM 1.0 °F -11.7 °F -2.9 °F 83% 30.54 in 10.0 mi WSW 6.9 mph - 0.00 in   Clear
1:56 AM 0.1 °F -12.8 °F -4.0 °F 83% 30.54 in 10.0 mi SW 6.9 mph - N/A   Clear
2:56 AM 0.1 °F -11.4 °F -4.9 °F 79% 30.56 in 10.0 mi SW 5.8 mph - N/A   Clear
3:56 AM -0.9 °F -11.0 °F -4.9 °F 83% 30.57 in 10.0 mi SSW 4.6 mph - N/A   Clear
4:56 AM -0.9 °F -14.1 °F -6.0 °F 79% 30.57 in 10.0 mi SSW 6.9 mph - N/A   Clear
5:56 AM -1.8 °F -12.0 °F -6.9 °F 79% 30.57 in 10.0 mi SSW 4.6 mph - N/A   Clear
6:56 AM -2.9 °F -11.2 °F -6.9 °F 83% 30.56 in 10.0 mi South 3.5 mph - N/A   Clear
7:56 AM -2.9 °F -13.3 °F -6.9 °F 83% 30.56 in 10.0 mi SSW 4.6 mph - N/A   Scattered Clouds
8:07 AM -2.2 °F -15.6 °F -7.6 °F 78% 30.42 in 10.0 mi SSW 6.9 mph - N/A   Mostly Cloudy
8:20 AM -2.2 °F -12.5 °F -7.6 °F 78% 30.41 in 10.0 mi Variable 4.6 mph - N/A   Mostly Cloudy
8:56 AM -0.9 °F -12.7 °F -6.0 °F 79% 30.54 in 10.0 mi SSW 5.8 mph - N/A   Mostly Cloudy
9:08 AM -0.4 °F -15.7 °F -5.8 °F 78% 30.40 in 10.0 mi SSW 9.2 mph - N/A   Scattered Clouds
9:15 AM -0.4 °F -14.7 °F -5.8 °F 78% 30.40 in 8.0 mi SSW 8.1 mph 16.1 mph N/A   Mostly Cloudy
9:56 AM 1.4 °F -12.5 °F -5.8 °F 72% 30.39 in 8.0 mi SSW 8.1 mph - N/A Snow Light Snow
10:39 AM 3.2 °F -12.2 °F -2.2 °F 78% 30.37 in 10.0 mi South 10.4 mph - 0.00 in   Scattered Clouds
10:46 AM 3.2 °F -12.2 °F -2.2 °F 78% 30.37 in 10.0 mi SSW 10.4 mph - 0.00 in   Scattered Clouds
10:56 AM 4.1 °F -12.0 °F -2.9 °F 73% 30.49 in 10.0 mi South 11.5 mph - 0.00 in   Scattered Clouds
11:56 AM 6.1 °F -8.7 °F -1.8 °F 70% 30.45 in 10.0 mi SSW 10.4 mph 20.7 mph N/A   Partly Cloudy
12:56 PM 10.4 °F -3.3 °F -0.4 °F 62% 30.25 in 10.0 mi SSW 10.4 mph 17.3 mph N/A   Partly Cloudy
1:56 PM 10.0 °F -3.7 °F -0.9 °F 61% 30.32 in 10.0 mi South 10.4 mph 17.3 mph N/A   Clear
2:56 PM 12.0 °F -3.4 °F -0.9 °F 56% 30.28 in 10.0 mi SSW 13.8 mph 26.5 mph N/A   Clear
3:56 PM 10.0 °F -4.5 °F -1.8 °F 59% 30.25 in 10.0 mi SSW 11.5 mph 24.2 mph N/A   Clear
4:56 PM 10.0 °F -3.7 °F -1.8 °F 59% 30.20 in 10.0 mi South 10.4 mph 18.4 mph N/A   Clear
5:56 PM 10.0 °F -0.9 °F -2.9 °F 56% 30.14 in 10.0 mi Variable 6.9 mph - N/A   Clear
6:56 PM 10.4 °F -3.3 °F -2.2 °F 57% 29.98 in 10.0 mi South 10.4 mph 20.7 mph N/A   Partly Cloudy
7:56 PM 12.0 °F -1.3 °F -2.9 °F 51% 30.06 in 10.0 mi South 10.4 mph 23.0 mph N/A   Partly Cloudy
8:56 PM 13.1 °F 1.8 °F -2.9 °F 49% 30.01 in 10.0 mi South 8.1 mph 18.4 mph N/A   Partly Cloudy
9:56 PM 12.2 °F -1.0 °F -2.2 °F 53% 29.86 in 10.0 mi SSW 10.4 mph 16.1 mph N/A   Clear
10:56 PM 14.0 °F 0.5 °F -1.8 °F 49% 29.93 in 10.0 mi SSW 11.5 mph 20.7 mph N/A   Scattered Clouds
11:56 PM 16.2 °F 3.9 °F -1.8 °F 45% 29.88 in 10.0 mi SSW 10.4 mph 20.7 mph N/A   Scattered Clouds